Location: Ammerl�gen
(47.2167°N, 9.6000°E)
Time: 04:07:59
(UTC+00:00)

Cosmos 1954 Rocket - Pass Details

Date: 21 April 2021
Orbit: 752 x 781 km, 74.0° (Epoch: 16 May)

Event Time Altitude Azimuth Distance (km) Brightness Sun altitude
Exits shadow 20:58:21 20° 213° (SSW) 1,693 5.6 -22.7°
Maximum altitude 21:01:57 70° 294° (WNW) 801 4.2 -23.1°
Drops below altitude 10° 21:07:07 10° 18° (NNE) 2,287 6.9 -23.6°
Sets 21:09:30 0° 21° (NNE) 3,218 7.7 -23.8°
